Saint Cloud, MN

9:53 PM CDT on August 29, 2016 (GMT -0500)
Saint Cloud Regional

Weather History for KSTC - February, 2012

Change the Weather History Date:

Saturday, February 11, 2012

  Actual Average Record
Temperature  
Mean Temperature 8 °F 16 °F  
Max Temperature 18 °F 26 °F 48 °F (1987)
Min Temperature -2 °F 6 °F -35 °F (1899)
Degree Days  
Heating Degree Days 57 49  
Month to date heating degree days 457 559  
Since 1 July heating degree days 4664 5661  
Cooling Degree Days 0 0  
Month to date cooling degree days 0 0  
Year to date cooling degree days 0 0  
Moisture  
Dew Point -8 °F    
Average Humidity 51    
Maximum Humidity 69    
Minimum Humidity 33    
Precipitation  
Precipitation 0.00 in 0.02 in 0.22 in (1979)
Month to date precipitation 0.00 0.19  
Year to date precipitation 0.57 0.84  
Snow  
Snow 0.00 in 0.20 in 3.00 in (1903)
Month to date snowfall 0.0 2.5  
Since 1 July snowfall 16.2 29.7  
Snow Depth 1.00 in    
Sea Level Pressure  
Sea Level Pressure 30.63 in    
Wind  
Wind Speed 13 mph (WNW)    
Max Wind Speed 23 mph    
Max Gust Speed 28 mph    
Visibility 10 miles    
Events      
T = Trace of Precipitation, MM = Missing Value Source: NWS Daily Summary

Daily Weather History Graph

Daily Weather History Graph

Search for Another Location

Airport or City:

Trip Planner

Search our weather history database for the weather conditions in past years. The results will help you decide how hot, cold, wet, or windy it might be!

Date:

Astronomy

Feb. 11, 2012 Rise Set
Actual Time 7:24 AM CST 5:36 PM CST
Civil Twilight 6:53 AM CST 6:07 PM CST
Nautical Twilight 6:19 AM CST 6:42 PM CST
Astronomical Twilight 5:44 AM CST 7:17 PM CST
Moon 10:44 PM CST (2/11) 8:50 AM CST (2/11)
Length of Visible Light 11h 13m
Length of Day
10h 12m
Waning Gibbous, 82% of the Moon is Illuminated
Feb 11
Waning Gibbous
Feb 14
Last Quarter
Feb 21
New
Feb 29
First Quarter
Mar 8
Full

Hourly Weather History & Observations

Time (CST) Temp. Windchill Dew Point Humidity Pressure Visibility Wind Dir Wind Speed Gust Speed Precip Events Conditions
12:53 AM -0.0 °F -14.2 °F -11.0 °F 60% 30.67 in 10.0 mi NW 8.1 mph - N/A   Clear
1:53 AM -0.0 °F -15.3 °F -13.0 °F 54% 30.66 in 10.0 mi NW 9.2 mph - N/A   Clear
2:53 AM -0.0 °F -18.0 °F -14.1 °F 52% 30.66 in 10.0 mi NW 12.7 mph - N/A   Clear
3:53 AM -0.0 °F -18.7 °F -15.0 °F 49% 30.65 in 10.0 mi NW 13.8 mph 19.6 mph N/A   Clear
4:53 AM -0.9 °F -18.3 °F -13.0 °F 57% 30.66 in 10.0 mi NW 11.5 mph - N/A   Clear
5:53 AM -0.9 °F -16.4 °F -13.0 °F 57% 30.68 in 10.0 mi NW 9.2 mph - N/A   Clear
6:53 AM -0.9 °F -15.3 °F -11.9 °F 60% 30.68 in 10.0 mi WNW 8.1 mph - N/A   Clear
7:53 AM -0.9 °F -18.3 °F -11.0 °F 62% 30.69 in 10.0 mi WNW 11.5 mph - N/A   Clear
8:53 AM 1.9 °F -18.1 °F -9.9 °F 58% 30.71 in 10.0 mi NW 17.3 mph 21.9 mph N/A   Clear
9:53 AM 6.1 °F -10.9 °F -9.0 °F 50% 30.70 in 10.0 mi NW 13.8 mph - N/A   Clear
10:53 AM 9.0 °F -10.0 °F -8.0 °F 46% 30.68 in 10.0 mi NW 19.6 mph - N/A   Clear
11:53 AM 12.0 °F -6.5 °F -8.0 °F 41% 30.67 in 10.0 mi NW 20.7 mph 24.2 mph N/A   Clear
12:53 PM 16.0 °F -0.4 °F -7.1 °F 36% 30.64 in 10.0 mi WNW 18.4 mph - N/A   Clear
1:53 PM 17.1 °F 1.0 °F -5.1 °F 37% 30.61 in 10.0 mi WNW 18.4 mph 23.0 mph N/A   Clear
2:53 PM 18.0 °F 2.6 °F -6.0 °F 35% 30.61 in 10.0 mi WNW 17.3 mph - N/A   Clear
3:53 PM 18.0 °F 3.1 °F -7.1 °F 33% 30.61 in 10.0 mi NW 16.1 mph - N/A   Clear
4:53 PM 17.1 °F 1.0 °F -6.0 °F 36% 30.61 in 10.0 mi WNW 18.4 mph - N/A   Clear
5:53 PM 14.0 °F 0.5 °F -5.1 °F 43% 30.61 in 10.0 mi WNW 11.5 mph - N/A   Clear
6:53 PM 12.9 °F 0.7 °F -4.0 °F 47% 30.61 in 10.0 mi West 9.2 mph - N/A   Clear
7:53 PM 10.9 °F -2.6 °F -2.9 °F 54% 30.61 in 10.0 mi WNW 10.4 mph - N/A   Clear
8:53 PM 9.0 °F -4.2 °F -2.0 °F 61% 30.60 in 10.0 mi NW 9.2 mph - N/A   Clear
9:53 PM 9.0 °F -3.2 °F -2.0 °F 61% 30.58 in 10.0 mi WNW 8.1 mph - N/A   Clear
10:53 PM 7.0 °F -3.3 °F -2.0 °F 67% 30.58 in 10.0 mi WNW 5.8 mph - N/A   Clear
11:53 PM 8.1 °F -3.2 °F -2.0 °F 64% 30.56 in 10.0 mi West 6.9 mph - N/A   Clear